Time,TemperatureF,DewpointF,PressureIn,WindDirection,WindDirectionDegrees,WindSpeedMPH,WindSpeedGustMPH,Humidity,HourlyPrecipIn,Conditions,Clouds,dailyrainin,SoftwareType,DateUTC
2013-10-04 00:29:00,70.0,66.0,29.94,SW,232,0.0,5.0,86,0.00,,,0.00,,2013-10-04 05:29:00,
2013-10-04 00:58:00,70.0,66.0,29.94,SW,219,1.0,6.0,87,0.00,,,0.00,,2013-10-04 05:58:00,
2013-10-04 01:17:00,70.0,66.0,29.94,SW,218,1.0,5.0,87,0.00,,,0.00,,2013-10-04 06:17:00,
2013-10-04 01:25:00,70.0,66.0,29.94,SW,218,1.0,5.0,87,0.00,,,0.00,,2013-10-04 06:25:00,
2013-10-04 01:54:00,69.0,66.0,29.94,North,0,0.0,0.0,89,0.00,,,0.00,,2013-10-04 06:54:00,
2013-10-04 02:25:00,69.0,66.0,29.94,SSW,196,0.0,1.0,91,0.00,,,0.00,,2013-10-04 07:25:00,
2013-10-04 02:54:00,68.0,66.0,29.94,North,0,0.0,0.0,92,0.00,,,0.00,,2013-10-04 07:54:00,
2013-10-04 03:25:00,68.0,66.0,29.94,North,0,0.0,0.0,93,0.00,,,0.00,,2013-10-04 08:25:00,
2013-10-04 03:54:00,68.0,66.0,29.94,SSW,196,0.0,5.0,93,0.00,,,0.00,,2013-10-04 08:54:00,
2013-10-04 04:25:00,68.0,66.0,29.95,SSE,168,0.0,2.0,93,0.00,,,0.00,,2013-10-04 09:25:00,
2013-10-04 04:57:00,68.0,66.0,29.95,South,175,0.0,2.0,93,0.00,,,0.00,,2013-10-04 09:57:00,
2013-10-04 05:28:00,67.0,65.0,29.95,SSE,158,0.0,2.0,94,0.00,,,0.00,,2013-10-04 10:28:00,
2013-10-04 05:57:00,67.0,65.0,29.95,SSE,158,0.0,1.0,94,0.00,,,0.00,,2013-10-04 10:57:00,
2013-10-04 06:27:00,67.0,65.0,29.96,SSE,158,0.0,2.0,94,0.00,,,0.00,,2013-10-04 11:27:00,
2013-10-04 06:56:00,67.0,65.0,29.96,SSE,147,0.0,1.0,94,0.00,,,0.00,,2013-10-04 11:56:00,
2013-10-04 07:27:00,67.0,66.0,29.98,North,0,0.0,0.0,95,0.00,,,0.00,,2013-10-04 12:27:00,
2013-10-04 07:59:00,67.0,66.0,29.98,North,0,0.0,0.0,95,0.00,,,0.00,,2013-10-04 12:59:00,
2013-10-04 08:27:00,68.0,66.0,29.99,South,169,0.0,5.0,92,0.00,,,0.00,,2013-10-04 13:27:00,
2013-10-04 08:59:00,71.0,67.0,30.00,South,189,1.0,6.0,86,0.00,,,0.00,,2013-10-04 13:59:00,
2013-10-04 09:27:00,73.0,67.0,30.00,SE,146,1.0,6.0,82,0.00,,,0.00,,2013-10-04 14:27:00,
2013-10-04 09:59:00,75.0,68.0,30.00,South,185,1.0,6.0,79,0.00,,,0.00,,2013-10-04 14:59:00,
2013-10-04 10:08:00,75.0,68.0,30.00,South,185,1.0,6.0,79,0.00,,,0.00,,2013-10-04 15:08:00,
2013-10-04 10:28:00,76.0,69.0,30.00,SSE,166,1.0,6.0,78,0.00,,,0.00,,2013-10-04 15:28:00,
2013-10-04 10:48:00,75.0,68.0,30.00,South,179,1.0,3.0,80,0.00,,,0.00,,2013-10-04 15:48:00,
2013-10-04 10:57:00,76.0,69.0,30.00,SSW,194,1.0,5.0,79,0.00,,,0.00,,2013-10-04 15:57:00,
2013-10-04 11:28:00,77.0,70.0,29.99,SSW,211,1.0,6.0,78,0.00,,,0.00,,2013-10-04 16:28:00,
2013-10-04 12:00:00,79.0,70.0,29.99,ESE,118,1.0,7.0,75,0.00,,,0.00,,2013-10-04 17:00:00,
2013-10-04 12:28:00,78.0,72.0,29.98,SSE,147,0.0,3.0,82,0.02,,,0.02,,2013-10-04 17:28:00,
2013-10-04 13:01:00,80.0,71.0,29.98,SSE,147,0.0,5.0,75,0.02,,,0.02,,2013-10-04 18:01:00,
2013-10-04 13:28:00,81.0,72.0,29.97,East,100,1.0,6.0,75,0.00,,,0.02,,2013-10-04 18:28:00,
2013-10-04 13:48:00,82.0,71.0,29.96,ESE,109,1.0,8.0,70,0.00,,,0.02,,2013-10-04 18:48:00,
2013-10-04 13:56:00,82.0,71.0,29.96,ESE,109,1.0,8.0,70,0.00,,,0.02,,2013-10-04 18:56:00,
2013-10-04 14:22:00,81.0,71.0,29.95,ESE,105,2.0,10.0,72,0.00,,,0.02,,2013-10-04 19:22:00,
2013-10-04 14:52:00,80.0,71.0,29.94,East,100,3.0,10.0,73,0.00,,,0.02,,2013-10-04 19:52:00,
2013-10-04 15:22:00,82.0,72.0,29.93,ESE,108,1.0,9.0,71,0.00,,,0.02,,2013-10-04 20:22:00,
2013-10-04 15:52:00,83.0,72.0,29.93,South,170,2.0,7.0,69,0.00,,,0.02,,2013-10-04 20:52:00,
2013-10-04 16:22:00,83.0,72.0,29.92,SE,134,1.0,7.0,69,0.00,,,0.02,,2013-10-04 21:22:00,
2013-10-04 16:54:00,82.0,70.0,29.92,SE,124,1.0,9.0,68,0.00,,,0.02,,2013-10-04 21:54:00,
2013-10-04 17:23:00,81.0,71.0,29.92,ESE,123,0.0,4.0,71,0.00,,,0.02,,2013-10-04 22:23:00,
2013-10-04 17:52:00,80.0,71.0,29.91,North,0,0.0,0.0,73,0.00,,,0.02,,2013-10-04 22:52:00,
2013-10-04 18:22:00,80.0,71.0,29.92,North,0,0.0,0.0,75,0.00,,,0.02,,2013-10-04 23:22:00,
2013-10-04 18:53:00,78.0,71.0,29.92,North,0,0.0,0.0,79,0.00,,,0.02,,2013-10-04 23:53:00,
2013-10-04 19:12:00,77.0,70.0,29.92,SE,142,0.0,2.0,78,0.00,,,0.02,,2013-10-05 00:12:00,
2013-10-04 19:22:00,77.0,70.0,29.92,SE,140,0.0,2.0,78,0.00,,,0.02,,2013-10-05 00:22:00,
2013-10-04 19:42:00,77.0,69.0,29.92,SE,137,0.0,3.0,77,0.00,,,0.02,,2013-10-05 00:42:00,
2013-10-04 19:53:00,76.0,69.0,29.93,SE,134,0.0,2.0,78,0.00,,,0.02,,2013-10-05 00:53:00,
2013-10-04 20:21:00,75.0,69.0,29.93,North,0,0.0,0.0,81,0.00,,,0.02,,2013-10-05 01:21:00,
2013-10-04 20:43:00,75.0,69.0,29.93,North,0,0.0,0.0,82,0.00,,,0.02,,2013-10-05 01:43:00,
2013-10-04 20:52:00,74.0,68.0,29.93,North,0,0.0,0.0,83,0.00,,,0.02,,2013-10-05 01:52:00,
2013-10-04 21:22:00,74.0,69.0,29.94,North,0,0.0,0.0,85,0.00,,,0.02,,2013-10-05 02:22:00,
2013-10-04 21:32:00,74.0,69.0,29.94,North,0,0.0,0.0,85,0.00,,,0.02,,2013-10-05 02:32:00,
2013-10-04 21:52:00,74.0,70.0,29.94,North,0,0.0,0.0,86,0.00,,,0.02,,2013-10-05 02:52:00,
2013-10-04 22:23:00,73.0,69.0,29.95,North,0,0.0,0.0,87,0.00,,,0.02,,2013-10-05 03:23:00,
2013-10-04 22:55:00,73.0,69.0,29.95,North,0,0.0,0.0,88,0.00,,,0.02,,2013-10-05 03:55:00,
2013-10-04 23:24:00,72.0,69.0,29.96,North,0,0.0,0.0,89,0.00,,,0.02,,2013-10-05 04:24:00,
2013-10-04 23:53:00,72.0,69.0,29.96,North,0,0.0,0.0,90,0.00,,,0.02,,2013-10-05 04:53:00,